PROFILE

 METAR AND TAF INFORMATION
ADDS - METARS form results

(0616 UTC 19 July 2019)
http://aviationweather.gov/metar/data/
 
TTCP 190600Z 00000KT 9999 -SHRA VCSH BKN016 26/24 Q1014 NOSIG RMK VCSH NE/S
TAF TTCP 190400Z 1906/2006 VRB05KT 9999 FEW018 BECMG 1912/1914 12015KT SCT020 PROB30 TEMPO 1915/1922 5000 SHRA BKN015 BECMG 2002/2004 VRB05KT FEW018 

 AIRPORT MAP

 RUNWAY INFORMATION
Runway 11 Runway length 9002 ft Runway width 159 ft
Runway elevation 29 ft Runway displaced threshold 1003 ft Runway heading 94
Runway 29 Runway length 9002 ft Runway width 159 ft
Runway elevation 20 ft Runway displaced threshold 0 ft Runway heading 274

 AIRPORT FREQUENCIES
Type APP Name PIARCO APP Frequency 119 MHZ
Type GND Name GND Frequency 121.7 MHZ
Type TWR Name TWR Frequency 118.4 MHZ

 AIRPORT NEAR NAVIGATION AIDS
Type NDB Name Crown Point Frequency 323 KHZ